Вернуться в каталог

DELTA 1 DEB

АктивенLEO
NORAD 7129·DEBRIS·🇺🇸 United States

Запущен Nov 6, 1973 с Vandenberg Space Force Base

Loading…

Ближайшие Пролёты (ближайшие 24 часа)

TLE

СвежийSource: Space-Track

Эпоха: Sep 14, 2026, 08:12 UTC

1 07129U 73086CT  26257.34198427 -.00000209  00000-0 -18121-2 0  9991
2 07129 102.0162 107.1311 0243935 183.1163 352.7173 12.04471649318082

Отслеживайте DELTA 1 DEB в реальном времени с AllMySat

Download on the App Store